Regional Weather Roundup
Issued by NWS

Home | Current Version | Previous Version | Graphics & Text | Print | Product List | Glossary On
Versions: 1 2 3 4 5 6 7 8 9 10 11 12 13 14 15 16 17 18 19 20 21 22 23 24 25 26 27 28 29 30 31 32 33 34 35 36 37 38 39 40 41 42 43 44 45 46 47 48 49 50
000
ASUS45 KSLC 250010
RWRUT

UTAH REGIONAL WEATHER ROUNDUP
NATIONAL WEATHER SERVICE SALT LAKE CITY UT
500 PM MST SAT FEB 24 2018

UTZ001>011-023>025-250100-

NORTHERN UTAH

CITY           SKY/WX    TMP DP  RH WIND       PRES   REMARKS
BRIGHAM CITY   CLOUDY    28  14  54 S10       29.97F WCI  19
HILL AFB       CLOUDY    25  14  63 S13       29.94F WCI  13
LOGAN          CLOUDY    28  13  53 S14       29.94F WCI  17
OGDEN          CLOUDY    28  12  51 S13       29.95F WCI  17
SALT LAKE CITY CLOUDY    31  14  49 S15G25    29.97S WCI  20
WENDOVER       CLOUDY    34  17  50 SW10      29.92S WCI  26
HEBER CITY     CLOUDY    23  12  63 SW10      29.92S WCI  12
WEST JORDAN    CLOUDY    26  16  66 SE16G23   29.97S WCI  13

$$

UTZ011>015-024>027-250100-

CENTRAL/NORTHEAST UTAH

CITY           SKY/WX    TMP DP  RH WIND       PRES   REMARKS
PROVO AIRPORT  CLOUDY    28  12  51 E6        30.01F WCI  22
MOAB/CANYONLAN PTSUNNY   36  -1  21 SW8       29.92F WCI  30
DELTA          CLOUDY    27  12  54 S6        29.98F WCI  20
PRICE          CLOUDY    26   9  48 SE9       29.90F WCI  17
RICHFIELD      MOSUNNY   32  12  43 SW8G14    29.96R WCI  25
VERNAL         CLOUDY    23  11  60 N7        29.92F WCI  15

$$

UTZ013>016-019>022-027-250100-

SOUTHERN UTAH

CITY           SKY/WX    TMP DP  RH WIND       PRES   REMARKS
BRYCE CANYON   CLOUDY    25  14  63 CALM      29.91S
CEDAR CITY     CLOUDY    28  18  66 SW14      29.97S WCI  17
MILFORD        CLOUDY    29  16  58 S8        29.96F WCI  21
ST GEORGE      MOCLDY    43  12  28 CALM      30.07F
HANKSVILLE     PTSUNNY   37   7  28 SE12G18   29.95S WCI  30
KANAB          MOSUNNY   36  16  44 S9G16     30.05F WCI  29
BLANDING         N/A     31   4  31 S10       30.01F WCI  22

$$

REGIONAL REPORTS     COLORADO/ARIZONA

CITY           SKY/WX    TMP DP  RH WIND       PRES   REMARKS
CRAIG, CO      MOCLDY    20   5  52 S5        29.88F WCI  13
GRAND JUNCTION CLOUDY    33   5  30 W9        29.93F WCI  25
RIFLE, CO      MOCLDY    28   4  35 N3        29.92F
MONTROSE, CO   SUNNY     30   4  33 SW8       29.95S WCI  22
CORTEZ, CO     SUNNY     33   3  28 W9        29.97F WCI  25
COLORADO CITY    N/A     37  10  32 W6        30.05S WCI  33
PAGE, AZ       MOSUNNY   40   9  28 NE7       29.98F
GRAND CANYON   SUNNY     30  12  47 SW12      30.01F WCI  20
KINGMAN, AZ    SUNNY     48   4  16 SW18      30.07F
FLAGSTAFF, AZ  SUNNY     30   4  33 SW14G21   30.03F WCI  19

$$

REGIONAL REPORTS    NEVADA/IDAHO/WYOMING

CITY           SKY/WX    TMP DP  RH WIND       PRES   REMARKS
LAS VEGAS, NV  PTSUNNY   54   0  11 S14G21    30.02F
ELY, NY        LGT SNOW  24  14  65 VRB7      29.96S WCI  16
ELKO, NV       CLOUDY    28  22  78 W18       29.95F WCI  15
POCATELLO, ID  LGT SNOW  25  19  78 S21G30    29.88R WCI  11
BURLEY, ID     CLOUDY    26  22  84 S18       29.87S WCI  13
EVANSTON, WY   CLOUDY    16  11  80 SW16      29.82S WCI   1
ROCK SPRINGS,  CLOUDY    17   8  67 W20       29.82S WCI   1

$$



USA.gov is the U.S. government's official web portal to all federal, state and local government web resources and services.